Location: Hamburg
(53.5500°N, 10.0000°E)
Time: 14:49:22
(UTC+01:00)

ISS - Visible Passes

Search period start: 09 February 2016 00:00
Search period end: 19 February 2016 00:00
Orbit: 399 x 408 km, 51.6° (Epoch: 09 February)

Date Brightness Start Highest point End Pass type
(mag) Time Alt. Az. Time Alt. Az. Time Alt. Az.
09 Feb -3.2 19:21:52 10° WSW 19:25:05 62° S 19:25:08 62° S visible
10 Feb -3.0 18:29:18 10° WSW 18:32:30 57° S 18:34:40 19° E visible
10 Feb -1.2 20:05:37 10° W 20:07:18 27° WSW 20:07:18 27° WSW visible
11 Feb -3.1 19:13:00 10° W 19:16:13 60° S 19:16:49 48° SE visible
12 Feb -3.1 18:20:22 10° W 18:23:35 63° S 18:26:19 13° E visible
12 Feb -1.7 19:56:45 10° W 19:58:57 32° WSW 19:58:57 32° WSW visible
13 Feb -2.7 19:04:03 10° W 19:07:13 50° SSW 19:08:29 30° SE visible
13 Feb 0.0 20:40:50 10° W 20:41:07 11° WSW 20:41:07 11° WSW visible
14 Feb -2.9 18:11:22 10° W 18:14:35 58° S 18:17:47 10° ESE visible
14 Feb -1.7 19:47:53 10° W 19:50:41 26° SSW 19:50:41 26° SSW visible
15 Feb -2.1 18:55:04 10° W 18:58:06 36° SSW 19:00:17 16° SE visible
15 Feb -0.1 20:32:52 10° WSW 20:32:56 10° WSW 20:32:56 10° WSW visible
16 Feb -2.4 18:02:18 10° W 18:05:27 47° SSW 18:08:35 10° ESE visible
16 Feb -0.9 19:39:12 10° WSW 19:41:23 17° SW 19:42:37 14° S visible
17 Feb -1.3 18:46:08 10° W 18:48:49 24° SSW 18:51:30 10° SSE visible
